Location: Unspecified
(22.6800°N, 112.2000°E)
Time: 06:49:44
(UTC+08:00)

Courier 1B Rocket - Pass Details

Date: 09 August 2021
Orbit: 920 x 1202 km, 28.3° (Epoch: 22 September)

Event Time Altitude Azimuth Distance (km) Brightness Sun altitude
Rises 20:41:33 0° 235° (SW) 4,084 8.6 -20.9°
Reaches altitude 10° 20:44:28 10° 231° (SW) 3,125 7.9 -21.4°
Maximum altitude 20:52:05 57° 155° (SSE) 1,378 5.4 -23.0°
Enters shadow 20:54:30 41° 103° (ESE) 1,631 5.7 -23.5°
